FW2876 Weather Reports


time (UTC)temp
F
wind
direction
speed
knots
gust
knots
rain 1hr
in
rain 24hr
in
rain mn
in
humidity
%
barometer
mb
20260510021544 84 360 10.4 14.8 0.00 0.00 0.00 26 1005.4
20260510020049 85 360 8.7 14.8 0.00 0.00 0.00 24 1005.4
20260510014543 85 360 8.7 15.6 0.00 0.00 0.00 23 1005.1
20260510013048 86 360 11.3 16.5 0.00 0.00 0.00 23 1005.0
20260510011542 87 360 10.4 19.1 0.00 0.00 0.00 22 1005.0
20260510010057 88 360 10.4 19.1 0.00 0.00 0.00 21 1004.9
20260510004540 89 360 11.3 20.0 0.00 0.00 0.00 20 1004.9
20260510003039 89 360 12.2 17.4 0.00 0.00 0.00 20 1005.0
20260510001538 90 360 11.3 17.4 0.00 0.00 0.00 19 1005.1
20260510000042 91 360 9.6 20.9 0.00 0.00 0.00 19 1005.2
20260509234553 92 360 9.6 15.6 0.00 0.00 0.00 17 1005.2
20260509233036 92 360 9.6 15.6 0.00 0.00 0.00 17 1005.2
20260509231536 92 360 13.9 26.1 0.00 0.00 0.00 16 1005.1
20260509230034 93 360 8.7 17.4 0.00 0.00 0.00 16 1005.3
20260509224533 93 360 9.6 17.4 0.00 0.00 0.00 15 1005.6
20260509223032 92 360 7.0 16.5 0.00 0.00 0.00 16 1005.8
20260509221548 93 360 9.6 17.4 0.00 0.00 0.00 15 1005.8
20260509220029 93 360 8.7 14.8 0.00 0.00 0.00 16 1006.0
20260509214527 92 360 6.1 16.5 0.00 0.00 0.00 17 1006.1
20260509213028 92 360 10.4 20.9 0.00 0.00 0.00 18 1006.3
20260509211526 92 360 15.6 23.5 0.00 0.00 0.00 18 1006.5
20260509210025 92 117 7.0 16.5 0.00 0.00 0.00 17 1006.4
20260509204522 93 360 9.6 19.1 0.00 0.00 0.00 17 1006.8
20260509203021 92 360 5.2 17.4 0.00 0.00 0.00 17 1007.0
20260509201518 92 360 7.8 14.8 0.00 0.00 0.00 19 1007.2
20260509200016 92 360 8.7 18.2 0.00 0.00 0.00 19 1007.3
20260509194517 92 360 0.9 19.1 0.00 0.00 0.00 19 1007.6
20260509193013 92 360 7.8 14.8 0.00 0.00 0.00 19 1007.8
20260509191511 91 360 4.3 19.1 0.00 0.00 0.00 20 1007.8
20260509190008 90 111 8.7 15.6 0.00 0.00 0.00 23 1008.0
20260509184518 90 360 8.7 14.8 0.00 0.00 0.00 23 1008.1
20260509183005 90 360 9.6 15.6 0.00 0.00 0.00 22 1008.5
20260509181503 89 232 7.8 15.6 0.00 0.00 0.00 23 1008.6
20260509180001 89 360 5.2 15.6 0.00 0.00 0.00 24 1008.9
20260509174559 89 360 8.7 15.6 0.00 0.00 0.00 24 1009.0
20260509173108 88 360 6.1 16.5 0.00 0.00 0.00 26 1009.2
20260509171612 87 360 7.8 18.2 0.00 0.00 0.00 28 1009.3
20260509170055 87 239 8.7 15.6 0.00 0.00 0.00 28 1009.3
20260509164554 86 242 9.6 14.8 0.00 0.00 0.00 30 1009.4
20260509163056 85 360 8.7 14.8 0.00 0.00 0.00 34 1009.6
20260509161547 84 256 9.6 15.6 0.00 0.00 0.00 36 1009.8
20260509160044 83 360 10.4 14.8 0.00 0.00 0.00 37 1009.9
20260509154542 82 360 10.4 14.8 0.00 0.00 0.00 40 1010.0
20260509153039 81 360 9.6 14.8 0.00 0.00 0.00 43 1010.2
20260509151536 79 360 7.0 12.2 0.00 0.00 0.00 48 1010.2
20260509150032 77 232 9.6 14.8 0.00 0.00 0.00 49 1010.4
20260509144529 76 360 8.7 13.9 0.00 0.00 0.00 52 1010.4
20260509143025 75 236 7.8 13.9 0.00 0.00 0.00 54 1010.5
20260509141528 73 360 9.6 13.9 0.00 0.00 0.00 55 1010.8
20260509140031 72 360 10.4 13.9 0.00 0.00 0.00 55 1010.9
20260509134518 71 360 8.7 13.9 0.00 0.00 0.00 55 1011.2
20260509133018 70 360 6.1 10.4 0.00 0.00 0.00 57 1011.1
20260509131518 69 230 5.2 10.4 0.00 0.00 0.00 58 1011.1
20260509130025 68 360 3.5 8.7 0.00 0.00 0.00 60 1011.1
20260509124525 67 360 4.3 11.3 0.00 0.00 0.00 61 1010.7
20260509123020 67 360 7.8 12.2 0.00 0.00 0.00 61 1010.5
20260509121514 67 360 7.8 11.3 0.00 0.00 0.00 60 1010.2
20260509120010 68 360 9.6 17.4 0.00 0.00 0.00 60 1010.0
20260509114508 68 360 6.1 11.3 0.00 0.00 0.00 61 1009.9
20260509113009 68 360 4.3 9.6 0.00 0.00 0.00 63 1009.8
20260509111508 67 360 2.6 7.0 0.00 0.00 0.00 63 1009.2
20260509110017 67 360 2.6 10.4 0.00 0.00 0.00 63 1009.4
20260509104507 67 360 6.1 13.0 0.00 0.00 0.00 63 1009.1
20260509103006 68 360 6.1 13.9 0.00 0.00 0.00 63 1009.0
20260509101510 68 360 13.9 18.2 0.00 0.00 0.00 63 1008.9
20260509100005 68 360 13.0 16.5 0.00 0.00 0.00 64 1008.8
20260509094503 68 360 12.2 18.2 0.00 0.00 0.00 64 1009.0
20260509093006 67 360 11.3 17.4 0.00 0.00 0.00 65 1008.9
20260509091501 67 360 9.6 15.6 0.00 0.00 0.00 64 1009.0
20260509090106 67 360 12.2 14.8 0.00 0.00 0.00 63 1009.1
20260509084604 67 360 8.7 12.2 0.00 0.00 0.00 62 1009.3
20260509083057 68 360 4.3 7.8 0.00 0.00 0.00 64 1009.6
20260509081555 68 360 5.2 8.7 0.00 0.00 0.00 63 1009.7
20260509080056 69 360 6.1 11.3 0.00 0.00 0.00 59 1009.8
20260509074601 69 360 8.7 12.2 0.00 0.00 0.00 60 1010.0
20260509073054 68 360 7.0 9.6 0.00 0.00 0.00 61 1010.3
20260509071555 67 360 9.6 13.0 0.00 0.00 0.00 62 1010.4
20260509070055 68 360 3.5 4.3 0.00 0.00 0.00 60 1009.1
20260509064545 70 360 3.5 7.8 0.00 0.00 0.00 58 1008.9
20260509063043 70 360 4.3 7.0 0.00 0.00 0.00 58 1009.2
20260509061542 70 234 3.5 7.0 0.00 0.00 0.00 58 1009.0
20260509060040 71 234 4.3 6.1 0.00 0.00 0.00 57 1009.1
20260509054548 71 360 2.6 7.0 0.00 0.00 0.00 56 1009.2
20260509053124 72 360 1.7 5.2 0.00 0.00 0.00 55 1009.5
20260509051545 73 360 4.3 9.6 0.00 0.00 0.00 54 1009.6
20260509050039 73 360 6.1 18.2 0.00 0.00 0.00 54 1009.1
20260509044530 73 229 5.2 11.3 0.00 0.00 0.00 54 1008.8
20260509043030 73 360 8.7 13.9 0.00 0.00 0.00 54 1008.4
20260509041529 73 360 11.3 16.5 0.00 0.00 0.00 54 1008.3
20260509040028 73 360 8.7 17.4 0.00 0.00 0.00 54 1008.2
20260509034528 73 360 7.8 16.5 0.00 0.00 0.00 54 1007.9
20260509033027 73 360 9.6 14.8 0.00 0.00 0.00 54 1007.9
20260509031526 74 360 6.1 13.0 0.00 0.00 0.00 53 1007.7
20260509030032 74 360 7.0 13.0 0.00 0.00 0.00 53 1007.6
20260509024525 74 360 6.1 13.0 0.00 0.00 0.00 52 1007.6
20260509023029 74 360 6.1 13.9 0.00 0.00 0.00 52 1007.5